Location: Spaichingen
(48.0400°N, 8.4300°E)
Time: 06:30:16
(UTC+01:00)

ISS - Pass Details

Date: 29 January 2019
Orbit: 403 x 411 km, 51.6° (Epoch: 23 February)

Event Time Altitude Azimuth Distance (km) Brightness Sun altitude
Rises 18:12:38 0° 254° (WSW) 2,326 2.5 -8.9°
Reaches altitude 10° 18:14:43 10° 256° (WSW) 1,469 0.7 -9.2°
Maximum altitude 18:18:00 70° 341° (NNW) 440 -3.7 -9.7°
Enters shadow 18:20:39 15° 64° (ENE) 1,211 -2.1 -10.1°
